Regional Weather Roundup
Issued by NWS

Home | Current Version | Previous Version | Graphics & Text | Print | Product List | Glossary On
Versions: 1 2 3 4 5 6 7 8 9 10 11 12 13 14 15 16 17 18 19 20 21 22 23 24 25 26 27 28 29 30 31 32 33 34 35 36 37 38 39 40 41 42 43 44 45 46 47 48 49 50
000
ASUS45 KTFX 251210
RWRMT
MONTANA REGIONAL WEATHER ROUNDUP
NATIONAL WEATHER SERVICE GREAT FALLS MT
600 AM MDT TUE JUL 25 2017

NOTE: "FAIR" INDICATES FEW OR NO CLOUDS BELOW 12000 FEET WITH NO
SIGNIFICANT WEATHER AND/OR OBSTRUCTIONS TO VISIBILITY.

MTZ001>007-043-251300-
WEST OF THE DIVIDE

CITY           SKY/WX    TMP DP  RH WIND       PRES   REMARKS
KALISPELL      CLEAR     61  41  47 N13       30.02R
MISSOULA       CLEAR     51  34  52 CALM      30.04R
BUTTE          CLOUDY    50  36  58 SE5       30.14R
MULLAN PASS    CLEAR     58  26  29 CALM      30.15R
ANACONDA         N/A     52  34  50 CALM      30.13R
DEER LODGE       N/A     55  37  50 NW9       30.13R
EUREKA           N/A     45  34  65 MISG      30.06R
HAMILTON         N/A     52  43  71 CALM      30.05R
LIBBY            N/A     45  36  70 SE3       30.03R
PLAINS           N/A     48  36  63 CALM      30.02R
$$

MTZ008-052>055-251300-
SOUTHWEST MONTANA

CITY           SKY/WX    TMP DP  RH WIND       PRES   REMARKS
BOZEMAN        PTCLDY    56  45  66 NW7       30.08R
DILLON         CLOUDY    60  45  57 SE6       30.09R
W YELLOWSTONE  CLOUDY    41  41 100 NE3       30.22S
ENNIS          CLEAR     59  39  47 N10       30.15R
THREE FORKS      N/A     63  39  41 NW10      30.07R
TWIN BRIDGES     N/A     56  45  66 MISG      30.08R
$$

MTZ009-010-012-014-046-048-049-054-251300-
EAST SLOPES AND CENTRAL MONTANA

CITY           SKY/WX    TMP DP  RH WIND       PRES   REMARKS
CUT BANK       CLEAR     45  40  82 W12       30.16S
GREAT FALLS    PTCLDY    47  37  68 NW6       30.17R
HELENA         CLOUDY    58  37  45 W9        30.14R
CHOTEAU          N/A     48  41  76 CALM      30.19R
CONRAD           N/A     50  45  83 CALM      30.17R
$$

MTZ011-013-016-021-045-047-050-051-251300-
NORTH CENTRAL MONTANA

CITY           SKY/WX    TMP DP  RH WIND       PRES   REMARKS
HAVRE          CLEAR     48  39  71 SW8       30.11R
LEWISTOWN      PTCLDY    51  36  56 CALM      30.16R
N BAR RANCH      N/A     55  34  44 VRB7      30.17S
CHINOOK          N/A     50  43  76 W5        30.10R
$$

MTZ017>020-022>027-061-062-251300-
NORTHEAST MONTANA

CITY           SKY/WX    TMP DP  RH WIND       PRES   REMARKS
GLASGOW        CLOUDY    58  46  64 N15       30.03R
JORDAN           N/A     60  40  47 N6        30.04R
SIDNEY         CLOUDY    65  44  46 N8        29.99R
WOLF POINT     MOCLDY    62  45  53 NW7       30.01R
MALTA          CLOUDY    61  43  51 NW7       30.07R
PLENTYWOOD       N/A     59  43  55 NW14      29.99S
POPLAR           N/A     59  45  58 N6        30.00S
SCOBEY           N/A     56  39  52 CALM      30.03R
$$

MTZ028>42-056>058-251300-
SOUTHCENTRAL AND SOUTHEAST MONTANA

CITY           SKY/WX    TMP DP  RH WIND       PRES   REMARKS
BAKER          MOCLDY    67  48  50 NE20      29.95R
BILLINGS       CLOUDY    64  42  44 N14       30.05R
LIVINGSTON     PTCLDY    60  41  49 W5        30.12R
MILES CITY     CLEAR     68  42  38 NE15      29.97R
BIG TIMBER     CLEAR     63  45  51 NE12      30.16R
EKALAKA          N/A     66  55  67 N2        29.93R
FORSYTH          N/A     66  41  39 N10G21    29.98R
LAUREL           N/A     63  40  42 N3        30.05R
$$

REGIONAL REPORTS...DAKOTAS

CITY           SKY/WX    TMP DP  RH WIND       PRES   REMARKS
WILLISTON      PTCLDY    63  44  50 N9        29.98S
MINOT          CLOUDY    67  51  56 W10       29.90R
DICKINSON      MOCLDY    64  51  62 NE9       29.94F
BEACH          DRIZZLE   57  50  77 NW6       30.02R
CROSBY           N/A     57  45  62 NW13      29.96S
TIOGA          MOCLDY    61  45  55 NW12G17   29.99F
WATFORD CITY     N/A     61  50  67 N7        29.96S
BISMARCK       CLOUDY    67  65  93 W5        29.92R
GRAND FORKS    PTCLDY    65  65 100 SE6       29.86S
FARGO          CLEAR     69  64  84 SE10      29.86R
BUFFALO SD       N/A     71  61  70 N15       29.86R
RAPID CITY     PTCLDY    68  61  78 N9        29.91R
$$

REGIONAL REPORTS...WYOMING/IDAHO/WASHINGTON

CITY           SKY/WX    TMP DP  RH WIND       PRES   REMARKS
GILLETTE       CLOUDY    59  52  77 S5        29.99R
SHERIDAN       CLEAR     61  50  67 S5        30.00R
BUFFALO WY     CLEAR     64  46  52 W5        30.07R
CODY           CLOUDY    67  41  38 CALM      30.10R
YELLOWSTONE LA   N/A     43  42  97 CALM      30.31R
IDAHO FALLS    CLOUDY    57  53  86 CALM      30.07R
BOISE          CLOUDY    75  49  39 SW3       29.91R
SPOKANE        PTCLDY    61  39  44 N3        29.99R
$$

REGIONAL REPORTS...ALBERTA

CITY           SKY/WX    TMP DP  RH WIND       PRES   REMARKS
EDMONTON       CLEAR     46  45  93 W6        30.01S
CALGARY        PTCLDY    46  41  81 S3        30.12S
LETHBRIDGE     PTCLDY    45  41  87 SW8       30.13S
MEDICINE HAT   CLEAR     48  45  87 SW6       30.09S
WATERTON GATE    N/A     36  34  93 CALM        N/A
CARDSTON         N/A     41  39  93 SW5         N/A
MILK RIVER       N/A     43  41  93 NW7         N/A
ONEFOUR          N/A     46  39  76 NW12        N/A
$$

REGIONAL REPORTS...SASKATCHEWAN

CITY           SKY/WX    TMP DP  RH WIND       PRES   REMARKS
SWIFT CURRENT  CLEAR     52  45  76 W18G25    30.00R
REGINA         CLOUDY    55  48  76 W18G24    29.91R
SASKATOON      PTCLDY    59  55  88 W18G28    29.84R
CYPRESS HILLS    N/A     48  39  71 NW10G18     N/A
VAL MARIE        N/A     45  37  76 W3          N/A
ROCKGLEN         N/A     48  43  81 W7          N/A
$$



USA.gov is the U.S. government's official web portal to all federal, state and local government web resources and services.